User: anonymous   Login
Location: Heidgraben
(53.7081°N, 9.6576°E)
Time: 09:48:57
(UTC+00:00)
Language:

Cosmos 2056 Rocket - Orbit

View from above orbital plane
View from above orbital plane
View from above satellite
View from above satellite

Ground track
Ground track

The orbit data is extracted from the following two-line orbital elements,

1 20433U 90004B   20270.86708203 -.00000015 +00000-0 +37263-5 0  9993
2 20433 074.0359 317.2511 0040299 155.9857 017.0310 14.36106071606841
Epoch (UTC): 26 September 2020 20:48:35
Eccentricity: 0.0040299
inclination: 74.0359°
perigee height: 742 km
apogee height: 800 km
right ascension of ascending node: 317.2511°
argument of perigee: 155.9857°
revolutions per day: 14.36106071
mean anomaly at epoch: 17.0310°
orbit number at epoch: 60684

The dashed part of the orbit path shows where the satellite is in the earth's shadow,  

DLR